User: anonymous   Login
Location: Demmingen
(48.6757°N, 10.4375°E)
Time: 12:19:20
(UTC+00:00)
Language:

Cosmos 2151 Rocket - Orbit

View from above orbital plane
View from above orbital plane
View from above satellite
View from above satellite

Ground track
Ground track

The orbit data is extracted from the following two-line orbital elements,

1 21423U 91042B   24200.71303090  .00000994  00000-0  12550-3 0  9997
2 21423  82.4920  61.5358 0018492  51.5499 308.7370 14.80838251764391
Epoch (UTC): 18 July 2024 17:06:45
Eccentricity: 0.0018492
inclination: 82.4920°
perigee height: 614 km
apogee height: 639 km
right ascension of ascending node: 61.5358°
argument of perigee: 51.5499°
revolutions per day: 14.80838251
mean anomaly at epoch: 308.7370°
orbit number at epoch: 76439

The dashed part of the orbit path shows where the satellite is in the earth's shadow,  

DLR